McGrath, AK

7:53 AM AKST on February 27, 2017 (GMT -0900)
Nikolai AP, Nikolai, AK

Weather History for PAFS - June, 2014

Change the Weather History Date:

Saturday, June 7, 2014

  Actual Average (PAMC) Record (PAMC)
Temperature  
Mean Temperature 60 °F -  
Max Temperature 70 °F 64 °F 87 °F (1957)
Min Temperature 50 °F 42 °F 30 °F (1974)
Degree Days  
Heating Degree Days 6    
Growing Degree Days 10 (Base 50)    
Moisture  
Dew Point 40 °F    
Average Humidity 49    
Maximum Humidity 74    
Minimum Humidity 30    
Precipitation  
Precipitation 0.00 in - - ()
Sea Level Pressure  
Sea Level Pressure 29.66 in    
Wind  
Wind Speed 4 mph (East)    
Max Wind Speed 9 mph    
Max Gust Speed 17 mph    
Visibility 10 miles    
Events      
Averages and records for this station are not official NWS values.
T = Trace of Precipitation, MM = Missing Value Source: NWS Daily Summary

Daily Weather History Graph

Daily Weather History Graph

Search for Another Location

Airport or City:

Trip Planner

Search our weather history database for the weather conditions in past years. The results will help you decide how hot, cold, wet, or windy it might be!

Date:

Astronomy

Jun. 07, 2014 Rise Set
Actual Time 4:19 AM AKDT 12:14 AM AKDT
Civil Twilight 2:48 AM AKDT 1:44 AM AKDT
Nautical Twilight Sun does not rise Sun does not rise
Astronomical Twilight Sun does not rise Sun does not rise
Moon 4:41 PM AKDT (6/7) 2:58 AM AKDT (6/7)
Length of Visible Light 22h 55m
Length of Day
19h 55m
Waxing Gibbous, 69% of the Moon is Illuminated
Jun 7
Waxing Gibbous
Jun 12
Full
Jun 19
Last Quarter
Jun 27
New
Jul 5
First Quarter

Hourly Weather History & Observations

Time (AKDT) Temp. Dew Point Humidity Pressure Visibility Wind Dir Wind Speed Gust Speed Precip Events Conditions
12:56 AM 54.9 °F 45.0 °F 69% 29.75 in 10.0 mi NE 5.8 mph - N/A   Mostly Cloudy
1:56 AM 54.9 °F 43.9 °F 66% 29.74 in 10.0 mi NE 4.6 mph - N/A   Overcast
2:56 AM 54.9 °F 43.0 °F 64% 29.74 in 10.0 mi NE 8.1 mph - N/A   Overcast
3:56 AM 52.9 °F 43.0 °F 69% 29.73 in 10.0 mi Calm Calm - N/A   Overcast
4:56 AM 52.0 °F 41.9 °F 69% 29.73 in 10.0 mi Calm Calm - N/A   Overcast
5:56 AM 50.0 °F 41.9 °F 74% 29.72 in 10.0 mi Calm Calm - N/A   Overcast
6:56 AM 50.9 °F 41.0 °F 69% 29.72 in 10.0 mi Calm Calm - N/A   Overcast
7:56 AM 54.0 °F 41.9 °F 64% 29.72 in 10.0 mi Calm Calm - N/A   Overcast
8:56 AM 57.9 °F 43.0 °F 58% 29.71 in 10.0 mi SW 3.5 mph - N/A   Scattered Clouds
9:56 AM 61.0 °F 43.0 °F 52% 29.70 in 10.0 mi Variable 3.5 mph - N/A   Clear
10:56 AM 63.0 °F 41.9 °F 46% 29.68 in 10.0 mi Calm Calm - N/A   Partly Cloudy
11:56 AM 64.9 °F 41.0 °F 42% 29.67 in 10.0 mi Variable 3.5 mph - 0.00 in   Clear
12:56 PM 64.4 °F 35.6 °F 34% 29.64 in 10.0 mi Calm Calm - N/A   Scattered Clouds
1:56 PM 65.8 °F 36.0 °F 33% 29.65 in 10.0 mi ENE 5.8 mph - N/A   Scattered Clouds
2:56 PM 68.0 °F 36.9 °F 32% 29.63 in 10.0 mi NE 6.9 mph - N/A   Scattered Clouds
3:56 PM 69.8 °F 37.4 °F 31% 29.60 in 10.0 mi ENE 8.1 mph - N/A   Mostly Cloudy
4:56 PM 68.9 °F 36.9 °F 31% 29.61 in 10.0 mi Calm Calm - N/A   Mostly Cloudy
5:56 PM 68.0 °F 36.9 °F 32% 29.60 in 10.0 mi Variable 4.6 mph - N/A   Scattered Clouds
6:56 PM 68.9 °F 36.9 °F 31% 29.59 in 10.0 mi Calm Calm - N/A   Mostly Cloudy
7:56 PM 68.9 °F 36.0 °F 30% 29.58 in 10.0 mi ESE 8.1 mph - N/A   Clear
8:56 PM 64.9 °F 36.0 °F 34% 29.59 in 10.0 mi SE 8.1 mph 17.3 mph N/A   Partly Cloudy
9:56 PM 62.6 °F 37.4 °F 39% 29.57 in 10.0 mi Variable 5.8 mph - N/A   Clear
10:56 PM 61.0 °F 36.9 °F 41% 29.59 in 10.0 mi Calm Calm - N/A   Scattered Clouds
11:56 PM 57.9 °F 46.9 °F 67% 29.62 in 10.0 mi SW 9.2 mph - N/A   Mostly Cloudy